Theta_e
309 310 309 308 307 307 307 308 304 306 312 321 325 325 326 327 326 324 325 326 327 330 331 332 333 333 334 332 335 333 332 331 330 331 330 327 326 325 325 325 325 324 322 319
307 310 310 307 308 308 309 309 309 311 314 327 326 326 325 326 324 324 324 322 324 327 329 330 328 330 329 330 332 333 329 329 330 328 326 325 325 324 324 323 322 320 317 315
303 309 310 306 310 311 314 316 314 311 320 325 321 323 324 322 320 318 319 322 324 327 328 329 328 330 328 329 330 328 328 327 327 326 324 322 321 318 317 318 320 318 316 314
306 309 299 312 318 318 314 317 320 322 323 324 323 323 323 320 319 318 319 324 326 326 328 327 326 326 325 325 324 322 323 321 321 318 317 318 317 318 320 319 318 316 314 313
305 303 307 310 315 316 314 314 321 322 324 325 323 322 320 322 321 322 321 327 328 328 328 326 321 321 328 322 322 320 320 320 320 322 321 323 322 320 319 318 316 314 314 313
306 300 298 311 319 322 320 310 323 325 323 322 321 314 318 321 322 322 327 327 325 325 320 320 322 323 321 323 321 321 318 318 320 322 324 323 322 319 317 316 314 312 312 312
304 303 308 317 320 321 306 313 325 325 324 322 319 320 320 320 321 324 326 324 325 321 322 321 322 323 319 316 314 316 318 320 322 324 324 324 322 319 316 315 313 312 311 312
307 303 301 320 318 312 320 327 325 324 322 322 320 320 319 318 321 324 321 320 321 321 322 324 323 321 316 315 317 319 318 319 320 322 320 321 320 317 316 315 312 311 311 310
313 311 321 323 323 325 328 325 323 322 322 321 319 318 320 320 319 319 318 320 323 321 316 316 319 319 313 315 318 318 316 317 319 319 320 320 318 316 313 315 311 310 309 309
314 315 320 320 324 325 326 324 324 323 321 320 318 318 319 318 317 319 320 321 323 322 321 320 319 319 319 320 319 321 320 319 318 318 318 319 317 316 315 316 314 311 311 311
313 317 319 320 323 324 323 322 321 320 320 320 319 319 320 319 319 320 321 323 322 321 321 320 322 322 324 324 323 321 317 317 316 316 319 317 317 314 315 316 308 311 311 311
310 319 321 321 323 321 319 318 318 318 318 320 321 319 319 319 321 321 322 322 321 321 321 321 321 320 321 322 322 321 320 319 310 313 313 313 313 313 294 295 296 295 295 300
320 324 325 324 321 320 318 318 319 320 320 319 321 322 321 321 321 317 321 320 320 320 319 319 320 319 320 321 322 320 320 311 309 309 311 311 313 310 310 302 295 294 294 294
322 324 319 318 315 318 319 319 318 321 321 321 321 321 321 320 320 320 319 320 321 318 317 317 317 315 318 319 320 321 318 304 312 310 310 312 311 308 312 311 309 306 296 299
321 322 321 319 319 319 320 320 319 318 319 320 322 320 321 320 319 317 319 320 318 317 316 315 314 315 317 319 318 318 316 314 314 314 313 310 313 314 311 311 311 309 307 299
319 320 319 317 317 318 319 319 317 318 319 320 321 321 321 322 321 319 318 317 315 314 314 314 315 317 317 317 316 315 315 306 307 314 313 313 312 312 310 311 310 309 308 306
316 315 316 315 316 317 315 316 316 317 318 319 319 321 320 320 320 319 316 317 317 316 316 316 316 317 317 317 316 314 314 314 305 312 311 311 312 311 310 311 309 307 306 299
322 321 320 319 316 314 314 315 316 316 316 318 320 319 318 317 315 315 316 317 316 316 316 316 316 316 317 316 316 315 315 314 314 314 313 311 310 310 309 307 305 305 305 300
322 320 320 318 317 316 316 316 317 318 318 319 318 317 317 316 316 316 316 315 313 311 312 314 301 308 315 313 313 315 313 313 311 310 308 301 306 306 305 304 303 304 305 304
321 321 320 318 318 318 318 319 319 319 319 319 318 317 316 316 317 315 315 313 312 311 316 315 314 316 316 313 304 313 311 310 309 308 308 307 307 305 302 295 302 303 304 304
320 320 318 317 317 319 320 321 320 319 320 320 318 317 317 318 317 315 313 310 314 313 314 303 313 314 314 310 311 313 312 311 310 309 308 307 305 307 305 305 304 303 303 304
320 318 317 319 319 320 322 323 321 320 320 319 318 318 318 317 315 315 314 311 314 297 310 312 313 299 310 299 314 313 312 312 312 311 309 308 308 307 307 307 306 306 306 306
318 319 319 320 320 321 322 321 320 318 317 317 317 317 317 316 314 311 309 315 314 304 312 312 293 289 290 311 313 313 312 312 312 311 310 309 309 308 308 307 307 307 307 307
319 320 320 322 322 320 317 318 318 317 317 317 318 318 317 314 314 315 314 302 293 300 310 306 297 287 285 309 310 311 311 311 310 311 309 296 309 309 308 308 306 307 308 301
320 320 320 319 317 316 318 317 316 316 316 315 316 316 316 315 312 313 314 312 294 302 309 286 287 287 305 309 309 309 309 309 310 309 309 309 309 308 309 308 308 309 308 308
319 318 319 319 318 317 316 315 313 313 312 312 313 314 314 314 315 314 314 306 312 303 309 307 307 306 308 308 308 308 309 308 307 308 307 308 308 309 308 308 307 306 306 308
319 311 317 316 317 316 315 313 313 311 310 312 311 313 314 313 311 310 304 312 311 310 310 308 307 304 308 309 308 309 308 309 302 309 308 308 308 308 308 308 308 307 307 306
Wind_Speed
3 5 8 13 15 14 15 14 9 5 13 19 15 12 11 9 7 4 6 7 6 7 4 6 7 7 8 7 8 9 10 11 10 12 12 12 11 12 11 12 13 12 12 12
5 5 10 9 8 9 5 7 4 7 11 18 14 13 9 8 5 5 10 5 5 4 3 6 6 7 5 6 7 8 9 9 10 10 11 11 12 12 11 12 12 12 14 14
10 9 11 11 9 8 6 2 7 11 13 17 15 12 9 8 7 5 3 3 4 4 4 5 5 5 6 6 7 7 10 9 10 10 11 11 12 10 8 9 12 13 13 13
7 9 16 8 4 1 3 5 5 10 17 17 14 11 9 7 6 4 1 4 6 4 3 6 8 7 6 7 5 10 11 9 7 6 8 10 8 7 10 10 11 10 11 12
7 13 6 7 7 9 11 8 6 13 17 16 14 12 9 10 4 3 3 3 5 5 7 8 6 4 7 8 8 8 8 7 3 4 6 8 10 10 9 9 10 10 10 11
10 15 10 7 12 6 4 9 10 14 15 17 16 10 10 6 4 5 8 6 7 6 7 4 4 7 7 8 8 8 7 6 4 3 8 9 9 9 9 8 8 8 10 9
11 12 7 7 12 9 10 7 15 14 14 14 7 8 11 8 6 7 8 9 9 6 6 6 5 9 10 8 7 5 4 6 7 8 9 8 8 7 7 7 7 7 7 6
9 8 7 14 11 6 6 14 14 14 12 13 14 13 12 10 9 10 10 9 7 7 7 7 7 10 10 9 4 5 7 6 9 8 6 6 7 7 6 6 6 5 4 4
5 4 8 14 8 9 10 14 12 13 14 15 15 13 12 11 11 10 10 9 9 11 9 6 8 9 10 7 6 5 5 3 4 6 6 5 6 5 5 4 3 2 1 2
9 6 15 9 10 9 14 14 15 15 16 15 15 14 15 13 11 11 10 10 8 10 10 10 7 7 7 6 5 6 5 6 4 4 4 3 3 3 2 2 1 2 0 2
10 11 12 8 11 14 15 16 17 16 15 16 17 15 14 13 12 10 10 10 9 8 7 8 8 7 6 8 7 6 6 4 5 2 1 4 3 5 3 6 8 7 5 4
7 19 3 18 16 17 18 18 18 18 16 15 17 16 13 12 11 9 10 10 8 8 7 7 4 5 5 5 5 5 6 6 4 2 3 4 5 5 10 9 9 8 8 7
9 14 14 20 19 18 18 19 17 16 16 16 15 15 15 12 11 10 11 9 8 8 5 4 2 3 3 3 2 3 6 7 5 3 3 3 2 1 5 6 7 7 8 8
19 21 19 20 20 19 18 18 14 15 14 13 12 13 12 12 11 11 9 9 9 7 5 4 4 6 5 6 7 8 9 8 4 3 4 4 5 1 2 3 3 7 7 6
16 8 20 21 20 19 18 17 16 15 14 14 13 13 13 13 11 8 9 9 8 7 6 6 7 6 6 7 7 7 7 7 6 2 5 4 3 3 3 3 3 3 7 7
10 19 22 23 21 19 19 18 17 15 14 14 13 13 12 12 11 10 9 9 8 5 5 5 7 7 6 5 4 6 6 9 7 2 3 3 1 1 3 3 3 3 4 6
21 19 22 21 20 21 19 16 15 15 14 13 13 12 11 11 11 11 10 7 7 7 6 6 7 6 6 5 4 4 4 5 2 6 1 3 3 3 3 2 3 4 4 6
12 17 20 22 21 20 18 17 15 15 14 14 13 12 12 11 10 10 9 7 6 7 7 6 3 5 6 5 5 5 3 4 3 3 3 3 3 2 2 3 4 3 4 6
14 19 19 21 20 19 17 16 15 14 13 13 13 12 11 10 10 9 8 7 7 7 6 5 4 4 4 4 6 3 3 3 4 4 5 4 4 3 3 3 4 4 4 4
18 19 21 21 20 18 16 15 14 13 12 12 12 11 11 10 10 9 7 7 7 6 7 6 6 6 4 6 8 4 4 4 5 5 4 4 4 4 5 3 3 4 4 4
20 21 21 20 18 16 14 13 12 12 12 11 11 11 11 11 10 9 7 7 7 7 4 4 6 6 6 6 8 5 5 5 5 5 5 4 5 3 3 3 3 3 3 3
19 19 20 18 16 14 13 12 11 11 11 10 10 10 11 11 11 8 4 5 7 6 4 5 6 5 5 7 8 5 4 4 4 4 4 3 3 3 3 2 2 2 1 2
17 18 17 16 15 14 13 12 11 11 10 10 10 10 10 9 9 8 8 8 6 7 6 4 7 4 4 7 4 5 6 4 4 4 4 3 3 3 3 3 2 2 1 1
18 17 16 14 15 14 14 12 11 10 9 9 9 9 8 7 6 4 7 10 10 8 4 7 6 5 6 4 5 5 5 5 5 4 5 1 4 4 4 3 4 3 2 4
17 16 15 16 14 11 13 12 11 10 10 8 9 9 9 6 7 7 6 7 10 8 8 7 6 5 8 4 4 5 5 4 4 5 4 4 4 4 3 3 3 2 2 1
15 12 12 14 11 10 10 10 8 8 8 9 9 8 8 6 4 6 6 3 8 8 7 9 9 8 8 5 5 5 4 6 5 5 2 4 4 3 4 4 4 5 4 2
11 11 12 10 9 9 9 9 9 9 9 9 9 9 8 7 6 3 4 7 7 9 7 7 8 7 6 6 6 5 5 5 3 4 5 4 4 4 4 4 4 4 4 4
Wind_Direction
4 119 184 203 201 200 220 232 241 202 168 171 154 156 143 122 115 103 60 43 38 60 355 8 52 49 46 40 41 50 78 91 91 88 88 83 79 78 81 83 86 88 83 74
158 183 169 164 173 186 189 152 152 148 112 138 129 134 148 135 124 76 42 43 13 63 25 35 31 55 58 55 64 86 86 83 93 93 91 95 95 91 84 75 76 77 71 66
170 181 163 164 152 148 117 139 161 162 145 137 153 160 150 117 81 81 57 -0 80 63 32 49 58 73 64 67 80 80 86 74 69 74 79 78 84 82 79 79 77 72 70 71
150 166 206 90 143 96 151 144 98 111 138 161 159 122 117 98 119 117 23 62 77 79 93 63 43 67 80 76 69 77 85 71 61 99 115 108 94 84 82 80 76 74 75 79
159 206 110 158 177 176 178 154 161 137 148 131 132 143 137 134 156 113 77 23 115 67 107 100 85 90 102 92 79 62 78 85 102 90 107 100 88 86 84 80 75 72 77 78
198 207 205 109 146 166 183 174 176 150 143 151 157 195 111 130 137 112 68 74 108 88 78 105 109 93 87 96 91 81 85 79 78 102 83 87 88 87 87 85 79 84 81 78
186 201 106 133 144 164 212 95 151 157 152 154 157 54 115 127 104 90 81 102 118 110 91 90 97 103 91 85 77 85 88 75 90 81 74 80 94 97 95 82 93 94 91 87
187 194 172 160 148 219 82 130 145 145 144 123 119 117 117 126 130 105 99 98 113 112 85 83 103 105 102 100 92 77 69 54 55 56 55 87 100 107 106 114 113 109 111 149
335 78 121 137 100 117 131 136 137 134 125 134 132 129 126 122 109 112 110 119 127 104 98 84 106 117 123 145 151 94 58 87 87 82 82 96 112 124 132 144 126 138 135 94
169 115 139 116 120 129 133 131 131 129 133 136 129 130 124 121 127 123 121 119 109 122 124 113 114 119 131 142 130 153 128 98 107 105 98 92 123 153 138 109 125 187 312 11
91 127 141 141 141 134 128 130 128 129 132 129 127 132 131 136 128 130 124 111 123 133 126 116 137 142 166 170 181 155 144 157 114 144 99 125 58 30 16 51 18 352 0 331
148 159 205 154 147 144 140 140 137 135 133 133 129 135 150 135 133 147 131 140 136 116 110 97 94 144 170 183 199 198 190 158 128 135 205 130 144 135 55 47 54 58 50 20
123 141 125 137 144 149 143 142 143 140 136 136 138 146 149 141 145 131 143 135 127 100 115 108 100 65 49 3 313 114 143 124 147 167 273 85 128 95 154 107 71 83 68 64
121 120 125 148 148 146 143 140 142 137 140 142 145 154 147 144 146 150 142 138 128 136 150 122 109 97 80 90 88 112 123 136 158 157 208 210 88 69 268 254 178 136 89 68
141 130 140 141 143 144 143 147 145 147 150 152 153 152 154 154 148 146 158 131 136 149 119 133 124 115 96 104 110 130 159 156 181 131 42 67 136 218 274 41 3 7 138 195
131 132 142 148 145 147 150 151 148 147 153 153 157 156 162 153 153 153 140 143 157 144 131 126 121 122 129 105 117 117 84 55 50 130 182 232 175 332 28 6 352 23 27 12
139 146 153 150 151 154 155 152 147 148 149 152 151 149 150 152 148 154 153 144 117 131 133 137 129 121 116 119 90 110 127 148 149 214 139 43 30 27 28 33 61 36 68 46
164 156 156 152 152 152 151 146 145 148 153 151 148 156 157 158 155 149 141 146 143 140 121 118 123 125 123 129 167 184 203 196 163 81 83 104 62 65 63 65 48 43 80 112
155 154 152 153 153 150 149 147 150 148 147 150 158 162 163 161 150 145 149 171 168 152 152 159 152 244 155 102 254 142 95 122 130 108 86 150 161 82 78 68 67 62 57 53
150 151 152 153 151 152 150 150 151 151 153 158 163 166 168 158 152 148 164 161 163 141 150 146 210 220 203 167 248 166 131 141 129 136 103 111 118 101 109 44 15 76 66 53
152 155 153 152 149 151 151 151 154 159 160 167 171 173 171 162 157 157 165 156 150 152 146 182 231 196 191 155 208 200 156 144 145 143 167 117 151 127 103 96 82 71 74 67
155 153 150 146 148 149 150 155 158 153 162 167 178 173 166 166 163 174 151 161 151 178 206 195 173 47 106 177 214 178 185 168 169 165 160 166 157 158 142 150 133 128 122 77
153 150 146 151 152 148 148 149 150 157 159 165 164 167 176 172 182 177 174 169 170 175 234 171 102 124 178 232 217 203 204 198 207 193 179 194 181 182 178 186 169 198 201 212
152 150 151 146 141 147 145 148 148 152 153 153 158 163 168 176 158 209 86 98 105 153 240 118 142 186 253 207 200 192 186 195 207 179 197 292 191 195 172 186 198 186 187 198
151 145 145 146 150 145 143 146 144 141 149 153 158 168 178 185 178 178 156 139 132 198 185 131 150 200 240 191 172 190 178 185 180 184 174 188 194 194 176 188 199 206 209 221
146 152 151 159 149 145 148 158 156 158 165 161 164 172 170 164 118 157 177 176 172 205 213 158 188 196 229 197 200 199 188 136 185 219 193 186 193 218 182 199 190 196 216 215
144 141 145 143 148 153 158 164 158 160 172 165 162 167 161 174 163 194 171 173 193 193 217 178 175 200 217 190 204 193 207 203 198 210 192 207 210 210 209 207 216 203 218 203